MAS165 WMKK-VTBD

Flight info

Callsign MAS165
Flight time N/A
Altitude 34000
Route BIKDU1D BIKDU Y501 RIGTO M769 GOKEX Y96 EMTIX/N0466F350 Y99 HOTEL SABAI3A
Aircraft B738/M-SDE2E3FGHIRWXY/LB1

Departure

Time 2026-05-04 15:03
Airport Kuala Lumpur International Airport (WMKK)

Arrival

Time N/A
Airport Don Mueang International Airport (VTBD)
Time Latitude Longitude Altitude Speed Heading
2026-05-04 14:45 2.74897 101.71632 74 ft 0 kts 327°
2026-05-04 14:55 2.74889 101.71638 74 ft 2 kts 326°
2026-05-04 14:55 2.74876 101.71645 74 ft 2 kts 343°
2026-05-04 14:55 2.74861 101.71648 74 ft 2 kts 354°
2026-05-04 14:55 2.74846 101.71648 74 ft 2 kts
2026-05-04 14:56 2.74831 101.71645 74 ft 2 kts 20°
2026-05-04 14:56 2.74817 101.71639 74 ft 2 kts 33°
2026-05-04 14:56 2.74805 101.71629 74 ft 2 kts 46°
2026-05-04 14:56 2.74799 101.71621 74 ft 0 kts 55°
2026-05-04 14:57 2.74795 101.71616 74 ft 0 kts 57°
2026-05-04 14:59 2.74798 101.71619 74 ft 2 kts 57°
2026-05-04 14:59 2.74898 101.71770 71 ft 18 kts 56°
2026-05-04 15:00 2.74970 101.71874 72 ft 18 kts 55°
2026-05-04 15:00 2.75007 101.71929 71 ft 0 kts 55°
2026-05-04 15:01 2.75064 101.72010 71 ft 9 kts 54°
2026-05-04 15:01 2.75114 101.72017 71 ft 9 kts 332°
2026-05-04 15:01 2.75131 101.72006 71 ft 0 kts 327°
2026-05-04 15:02 2.75141 101.72000 71 ft 6 kts 327°
2026-05-04 15:03 2.75398 101.71829 67 ft 96 kts 326°
2026-05-04 15:03 2.76212 101.71285 249 ft 169 kts 326°
2026-05-04 15:03 2.77183 101.70641 1383 ft 172 kts 327°
2026-05-04 15:03 2.78170 101.69978 2342 ft 181 kts 326°
2026-05-04 15:04 2.79252 101.69243 3183 ft 196 kts 327°
2026-05-04 15:04 2.80450 101.68544 3993 ft 211 kts 339°
2026-05-04 15:04 2.81893 101.68115 4812 ft 226 kts 347°
2026-05-04 15:04 2.83475 101.67747 5618 ft 244 kts 348°
2026-05-04 15:05 2.85178 101.67338 6460 ft 261 kts 347°
2026-05-04 15:05 2.86996 101.66881 7301 ft 277 kts 346°
2026-05-04 15:05 2.88876 101.66399 8294 ft 285 kts 346°
2026-05-04 15:05 2.90817 101.65898 9371 ft 289 kts 347°
2026-05-04 15:06 2.92753 101.65401 10362 ft 296 kts 347°
2026-05-04 15:06 2.94810 101.64874 11075 ft 314 kts 347°